User: anonymous   Login
Location: Trout Lake
(45.9980°N, 121.5270°W)
Time: 01:54:21
(UTC-07:00)
Language:

Cosmos 1271 Rocket - Orbit

View from above orbital plane
View from above orbital plane
View from above satellite
View from above satellite

Ground track
Ground track

The orbit data is extracted from the following two-line orbital elements,

1 12465U 81046B   24259.95377135  .00019738  00000-0  73059-3 0  9994
2 12465  81.2378 210.6825 0028697  83.9944 276.4560 15.27155411355636
Epoch (UTC): 15 September 2024 22:53:25
Eccentricity: 0.0028697
inclination: 81.2378°
perigee height: 464 km
apogee height: 504 km
right ascension of ascending node: 210.6825°
argument of perigee: 83.9944°
revolutions per day: 15.27155411
mean anomaly at epoch: 276.4560°
orbit number at epoch: 35563

The dashed part of the orbit path shows where the satellite is in the earth's shadow,  

DLR